K6PKL-2 Weather Reports


Display with metric or nautical units.
time (UTC)temp
F
wind
direction
speed
MPH
gust
MPH
rain 1hr
in
rain 24hr
in
rain mn
in
humidity
%
barometer
mb
20260903105406 63 315 0.0 1.0 0.00 0.00 0.00 74 1020.4
20260903105006 63 315 0.0 0.0 0.00 0.00 0.00 74 1020.4
20260903104606 63 0 0.0 1.0 0.00 0.00 0.00 74 1020.4
20260903104207 63 45 0.0 0.0 0.00 0.00 0.00 73 1020.4
20260903103806 63 45 0.0 0.0 0.00 0.00 0.00 74 1020.3
20260903103006 63 45 0.0 0.0 0.00 0.00 0.00 74 1020.3
20260903102606 63 45 0.0 0.0 0.00 0.00 0.00 74 1020.4
20260903102205 63 45 0.0 0.0 0.00 0.00 0.00 74 1020.5
20260903101806 63 45 0.0 0.0 0.00 0.00 0.00 75 1020.5
20260903101405 63 45 0.0 0.0 0.00 0.00 0.00 74 1020.5
20260903101005 63 45 0.0 2.0 0.00 0.00 0.00 75 1020.5
20260903100605 63 45 1.0 2.0 0.00 0.00 0.00 75 1020.4
20260903095804 63 45 0.0 1.0 0.00 0.00 0.00 75 1020.5
20260903095404 63 0 1.0 2.0 0.00 0.00 0.00 76 1020.4
20260903095004 63 0 1.0 2.0 0.00 0.00 0.00 75 1020.5
20260903094204 63 346 1.0 2.0 0.00 0.00 0.00 75 1020.4
20260903093805 63 355 0.0 1.0 0.00 0.00 0.00 75 1020.5
20260903093003 63 0 0.0 2.0 0.00 0.00 0.00 75 1020.6
20260903092203 64 342 0.0 3.0 0.00 0.00 0.00 75 1020.5
20260903091804 64 270 0.0 2.0 0.00 0.00 0.00 75 1020.6
20260903091403 64 335 1.0 2.0 0.00 0.00 0.00 75 1020.7
20260903091003 64 342 0.0 2.0 0.00 0.00 0.00 75 1020.6
20260903090202 64 321 1.0 3.0 0.00 0.00 0.00 75 1020.7
20260903085802 64 0 3.0 3.0 0.00 0.00 0.00 75 1020.7
20260903085402 64 234 3.0 4.0 0.00 0.00 0.00 75 1020.8
20260903084602 64 319 3.0 3.0 0.00 0.00 0.00 74 1020.8
20260903084202 64 0 0.0 4.0 0.00 0.00 0.00 74 1020.8
20260903083802 64 225 2.0 3.0 0.00 0.00 0.00 74 1020.8
20260903083401 64 225 1.0 4.0 0.00 0.00 0.00 74 1020.8
20260903083001 65 351 3.0 3.0 0.00 0.00 0.00 73 1020.8
20260903082601 65 225 1.0 3.0 0.00 0.00 0.00 73 1020.9
20260903082201 65 315 1.0 3.0 0.00 0.00 0.00 73 1020.9
20260903081801 65 270 1.0 2.0 0.00 0.00 0.00 73 1020.8
20260903081401 65 225 1.0 3.0 0.00 0.00 0.00 72 1020.9
20260903081001 65 324 2.0 3.0 0.00 0.00 0.00 73 1020.8
20260903080601 65 45 0.0 2.0 0.00 0.00 0.00 72 1020.8
20260903080200 65 315 0.0 3.0 0.00 0.00 0.00 72 1020.8
20260903075801 65 0 0.0 3.0 0.00 0.00 0.00 72 1020.8
20260903075400 65 353 3.0 3.0 0.00 0.00 0.00 72 1020.7
20260903075000 65 310 2.0 4.0 0.00 0.00 0.00 72 1020.8
20260903074600 65 315 1.0 3.0 0.00 0.00 0.00 71 1020.8
20260903074200 65 328 2.0 3.0 0.00 0.00 0.00 71 1020.8
20260903073759 65 276 0.0 5.0 0.00 0.00 0.00 71 1020.8
20260903073359 66 348 3.0 5.0 0.00 0.00 0.00 71 1020.8
20260903072959 66 24 1.0 4.0 0.00 0.00 0.00 70 1020.8
20260903072559 66 301 0.0 4.0 0.00 0.00 0.00 70 1020.8
20260903072159 66 339 2.0 4.0 0.00 0.00 0.00 70 1020.8
20260903071359 66 270 1.0 3.0 0.00 0.00 0.00 69 1020.8
20260903070959 66 225 2.0 4.0 0.00 0.00 0.00 69 1020.8
20260903070558 67 310 1.0 3.0 0.00 0.00 0.00 68 1020.9
20260903070158 67 0 0.0 4.0 0.00 0.00 0.00 69 1020.9
20260903065758 67 324 3.0 3.0 0.00 0.00 0.00 68 1020.8
20260903065359 67 225 1.0 3.0 0.00 0.00 0.00 67 1020.8
20260903064958 67 319 3.0 4.0 0.00 0.00 0.00 67 1020.7
20260903064558 67 0 1.0 2.0 0.00 0.00 0.00 67 1020.7
20260903064157 67 357 2.0 2.0 0.00 0.00 0.00 67 1020.7
20260903063757 67 0 1.0 4.0 0.00 0.00 0.00 67 1020.7
20260903062957 67 315 0.0 3.0 0.00 0.00 0.00 67 1020.8
20260903062557 67 20 1.0 5.0 0.00 0.00 0.00 66 1020.7
20260903062157 67 180 2.0 3.0 0.00 0.00 0.00 66 1020.7
20260903061357 68 270 1.0 4.0 0.00 0.00 0.00 66 1020.7
20260903060956 68 297 3.0 3.0 0.00 0.00 0.00 65 1020.8
20260903060557 68 315 0.0 3.0 0.00 0.00 0.00 65 1020.8
20260903060156 68 245 2.0 4.0 0.00 0.00 0.00 65 1020.8
20260903055756 68 258 2.0 4.0 0.00 0.00 0.00 65 1020.7
20260903055358 68 315 1.0 4.0 0.00 0.00 0.00 65 1020.8
20260903054956 68 274 3.0 6.0 0.00 0.00 0.00 64 1020.8
20260903054556 69 247 1.0 5.0 0.00 0.00 0.00 64 1020.8
20260903054155 69 315 1.0 4.0 0.00 0.00 0.00 64 1020.8
20260903053755 69 335 3.0 5.0 0.00 0.00 0.00 63 1020.8
20260903053355 69 326 2.0 4.0 0.00 0.00 0.00 63 1020.8
20260903052955 69 25 3.0 4.0 0.00 0.00 0.00 62 1020.7
20260903052555 69 301 3.0 5.0 0.00 0.00 0.00 62 1020.7
20260903052155 69 267 3.0 5.0 0.00 0.00 0.00 62 1020.7
20260903051755 70 315 1.0 3.0 0.00 0.00 0.00 62 1020.8
20260903051354 70 321 3.0 5.0 0.00 0.00 0.00 62 1020.8
20260903050954 70 308 3.0 4.0 0.00 0.00 0.00 61 1020.7
20260903050554 70 252 3.0 4.0 0.00 0.00 0.00 61 1020.8
20260903050154 70 315 1.0 5.0 0.00 0.00 0.00 60 1020.7
20260903045354 70 261 2.0 5.0 0.00 0.00 0.00 58 1020.7
20260903044954 71 242 5.0 7.0 0.00 0.00 0.00 58 1020.7
20260903044553 71 308 2.0 6.0 0.00 0.00 0.00 57 1020.5
20260903044153 71 279 3.0 6.0 0.00 0.00 0.00 57 1020.6
20260903043753 71 243 4.0 5.0 0.00 0.00 0.00 57 1020.6
20260903043353 71 335 5.0 5.0 0.00 0.00 0.00 57 1020.5
20260903042953 72 288 4.0 7.0 0.00 0.00 0.00 57 1020.5
20260903042553 72 310 4.0 6.0 0.00 0.00 0.00 55 1020.4
20260903042153 72 0 5.0 6.0 0.00 0.00 0.00 55 1020.4
20260903041752 72 0 1.0 4.0 0.00 0.00 0.00 54 1020.5
20260903041352 72 180 1.0 6.0 0.00 0.00 0.00 54 1020.4
20260903040953 72 294 2.0 3.0 0.00 0.00 0.00 54 1020.4
20260903040552 73 321 4.0 6.0 0.00 0.00 0.00 54 1020.3
20260903040152 73 292 2.0 6.0 0.00 0.00 0.00 54 1020.3
20260903035752 73 234 4.0 6.0 0.00 0.00 0.00 54 1020.2
20260903035352 73 252 1.0 6.0 0.00 0.00 0.00 55 1020.2
20260903034951 73 247 4.0 5.0 0.00 0.00 0.00 54 1020.2
20260903034151 74 281 3.0 3.0 0.00 0.00 0.00 54 1020.1
20260903033751 74 330 3.0 7.0 0.00 0.00 0.00 54 1020.0
20260903033351 74 227 4.0 4.0 0.00 0.00 0.00 54 1019.9
20260903032951 74 315 1.0 5.0 0.00 0.00 0.00 54 1020.0
20260903032551 74 270 1.0 5.0 0.00 0.00 0.00 54 1019.9
20260903032150 75 13 2.0 4.0 0.00 0.00 0.00 53 1019.8
20260903031750 75 292 2.0 6.0 0.00 0.00 0.00 53 1019.8
20260903030950 75 351 2.0 5.0 0.00 0.00 0.00 51 1019.7
20260903030550 76 339 4.0 6.0 0.00 0.00 0.00 52 1019.8
20260903030150 76 0 3.0 7.0 0.00 0.00 0.00 51 1019.7
20260903025750 76 319 3.0 6.0 0.00 0.00 0.00 51 1019.7
20260903025349 77 9 4.0 8.0 0.00 0.00 0.00 51 1019.6
20260903024949 77 315 3.0 8.0 0.00 0.00 0.00 51 1019.6
20260903024549 77 333 7.0 9.0 0.00 0.00 0.00 50 1019.5
20260903024149 78 343 1.0 6.0 0.00 0.00 0.00 50 1019.6
20260903023749 78 333 3.0 7.0 0.00 0.00 0.00 51 1019.5
20260903023349 79 348 9.0 10.0 0.00 0.00 0.00 50 1019.6
20260903022949 79 6 6.0 9.0 0.00 0.00 0.00 51 1019.5
20260903022548 80 355 7.0 8.0 0.00 0.00 0.00 51 1019.5
20260903021748 81 2 6.0 8.0 0.00 0.00 0.00 51 1019.5
20260903021348 81 225 2.0 6.0 0.00 0.00 0.00 50 1019.5
20260903020948 81 330 3.0 7.0 0.00 0.00 0.00 50 1019.4
20260903020548 82 343 4.0 4.0 0.00 0.00 0.00 50 1019.4
20260903020148 82 253 1.0 6.0 0.00 0.00 0.00 49 1019.5
20260903015747 83 270 3.0 6.0 0.00 0.00 0.00 48 1019.5
20260903015347 84 255 5.0 7.0 0.00 0.00 0.00 48 1019.5
20260903014547 85 335 4.0 6.0 0.00 0.00 0.00 47 1019.5
20260903014147 85 230 3.0 7.0 0.00 0.00 0.00 47 1019.6
20260903013747 85 262 2.0 7.0 0.00 0.00 0.00 47 1019.5
20260903013347 84 256 7.0 7.0 0.00 0.00 0.00 47 1019.4
20260903012946 84 310 4.0 6.0 0.00 0.00 0.00 47 1019.4
20260903012546 84 218 3.0 6.0 0.00 0.00 0.00 46 1019.4
20260903012146 84 258 3.0 6.0 0.00 0.00 0.00 46 1019.4
20260903011746 84 312 4.0 6.0 0.00 0.00 0.00 46 1019.3
20260903010946 83 285 3.0 6.0 0.00 0.00 0.00 46 1019.3
20260903010236 83 265 2.0 7.0 0.00 0.00 0.00 46 1019.3
20260903010146 83 265 2.0 7.0 0.00 0.00 0.00 46 1019.3
20260903005745 83 0 4.0 5.0 0.00 0.00 0.00 46 1019.4
20260903005345 83 337 2.0 8.0 0.00 0.00 0.00 45 1019.4
20260903004945 83 315 2.0 7.0 0.00 0.00 0.00 45 1019.4
20260903004545 83 231 4.0 7.0 0.00 0.00 0.00 45 1019.4
20260903004145 84 109 1.0 5.0 0.00 0.00 0.00 44 1019.4
20260903003745 84 307 3.0 5.0 0.00 0.00 0.00 44 1019.4
20260903003345 84 315 2.0 5.0 0.00 0.00 0.00 44 1019.4
20260903002944 84 218 2.0 6.0 0.00 0.00 0.00 45 1019.4
20260903002544 84 205 2.0 4.0 0.00 0.00 0.00 44 1019.5
20260903002144 84 312 2.0 4.0 0.00 0.00 0.00 44 1019.5
20260903001744 84 0 2.0 3.0 0.00 0.00 0.00 44 1019.5
20260903001344 84 272 3.0 4.0 0.00 0.00 0.00 44 1019.5
20260903000544 84 295 2.0 9.0 0.00 0.00 0.00 44 1019.5
20260903000143 84 288 1.0 5.0 0.00 0.00 0.00 44 1019.5
20260902235743 84 318 1.0 5.0 0.00 0.00 0.00 44 1019.6
20260902235343 84 346 5.0 6.0 0.00 0.00 0.00 44 1019.6
20260902234943 84 285 1.0 1.0 0.00 0.00 0.00 46 1019.6
20260902234543 84 351 0.0 1.0 0.00 0.00 0.00 46 1019.6
20260902234143 84 270 0.0 3.0 0.00 0.00 0.00 46 1019.6
20260902233743 84 345 0.0 2.0 0.00 0.00 0.00 45 1019.6
20260902233342 84 315 1.0 3.0 0.00 0.00 0.00 45 1019.6
20260902232942 84 105 0.0 4.0 0.00 0.00 0.00 45 1019.8
20260902232542 84 0 3.0 6.0 0.00 0.00 0.00 45 1019.7
20260902232142 84 312 2.0 4.0 0.00 0.00 0.00 45 1019.8
20260902231742 84 274 0.0 4.0 0.00 0.00 0.00 46 1019.9
20260902231342 84 315 4.0 5.0 0.00 0.00 0.00 45 1019.9
20260902230942 84 225 0.0 1.0 0.00 0.00 0.00 45 1019.9
20260902230541 84 315 2.0 3.0 0.00 0.00 0.00 45 1019.9
20260902225741 84 65 0.0 4.0 0.00 0.00 0.00 46 1020.0
20260902225341 84 234 2.0 8.0 0.00 0.00 0.00 45 1020.1
20260902224941 84 231 3.0 6.0 0.00 0.00 0.00 45 1020.1
20260902224141 83 202 2.0 7.0 0.00 0.00 0.00 45 1020.3
20260902223340 83 211 7.0 10.0 0.00 0.00 0.00 46 1020.4
20260902222940 83 165 0.0 3.0 0.00 0.00 0.00 47 1020.3
20260902222541 83 229 2.0 7.0 0.00 0.00 0.00 46 1020.4
20260902221740 83 225 4.0 5.0 0.00 0.00 0.00 46 1020.4
20260902221340 83 209 1.0 4.0 0.00 0.00 0.00 46 1020.4
20260902220939 82 270 1.0 8.0 0.00 0.00 0.00 46 1020.5
20260902220139 82 218 7.0 7.0 0.00 0.00 0.00 47 1020.7
20260902215739 82 319 5.0 5.0 0.00 0.00 0.00 46 1020.6
20260902215339 82 270 2.0 4.0 0.00 0.00 0.00 47 1020.7
20260902214939 82 324 4.0 6.0 0.00 0.00 0.00 47 1020.8
20260902214539 81 344 2.0 6.0 0.00 0.00 0.00 48 1020.8
20260902214139 81 229 3.0 5.0 0.00 0.00 0.00 50 1020.9
20260902213738 81 315 2.0 4.0 0.00 0.00 0.00 51 1020.9
20260902213338 81 50 4.0 4.0 0.00 0.00 0.00 51 1020.9
20260902212938 81 135 2.0 2.0 0.00 0.00 0.00 50 1021.0
20260902212538 80 243 1.0 5.0 0.00 0.00 0.00 51 1021.0
20260902212138 80 45 4.0 6.0 0.00 0.00 0.00 54 1021.1
20260902211738 80 45 3.0 6.0 0.00 0.00 0.00 54 1021.2
20260902211337 80 94 2.0 5.0 0.00 0.00 0.00 55 1021.1
20260902210937 79 96 5.0 5.0 0.00 0.00 0.00 54 1021.2
20260902210537 79 63 1.0 3.0 0.00 0.00 0.00 54 1021.2
20260902210137 79 94 2.0 4.0 0.00 0.00 0.00 55 1021.2
20260902205737 78 135 2.0 5.0 0.00 0.00 0.00 55 1021.2
20260902205337 78 76 2.0 4.0 0.00 0.00 0.00 55 1021.3
20260902204537 78 74 3.0 5.0 0.00 0.00 0.00 56 1021.3
20260902204136 78 45 5.0 5.0 0.00 0.00 0.00 56 1021.2
20260902203736 77 81 1.0 3.0 0.00 0.00 0.00 56 1021.3
20260902203336 77 270 0.0 3.0 0.00 0.00 0.00 55 1021.4
20260902202936 77 47 2.0 3.0 0.00 0.00 0.00 55 1021.6
20260902202536 77 218 2.0 5.0 0.00 0.00 0.00 55 1021.6
20260902202136 76 202 1.0 3.0 0.00 0.00 0.00 55 1021.6
20260902201735 76 45 0.0 6.0 0.00 0.00 0.00 55 1021.6
20260902200935 76 286 1.0 5.0 0.00 0.00 0.00 55 1021.8
20260902200535 75 225 2.0 5.0 0.00 0.00 0.00 57 1021.7
20260902200135 75 83 0.0 5.0 0.00 0.00 0.00 56 1021.7
20260902195735 75 247 2.0 4.0 0.00 0.00 0.00 57 1021.8
20260902194935 74 237 2.0 4.0 0.00 0.00 0.00 57 1021.9
20260902194534 74 328 1.0 4.0 0.00 0.00 0.00 58 1021.9
20260902194134 74 135 0.0 6.0 0.00 0.00 0.00 58 1021.9
20260902193734 74 45 1.0 4.0 0.00 0.00 0.00 59 1022.0
20260902193334 74 108 2.0 3.0 0.00 0.00 0.00 60 1022.0
20260902192134 73 225 5.0 7.0 0.00 0.00 0.00 60 1022.1
20260902191733 73 180 1.0 5.0 0.00 0.00 0.00 60 1022.2
20260902191333 72 90 0.0 2.0 0.00 0.00 0.00 61 1022.2
20260902190933 72 225 5.0 6.0 0.00 0.00 0.00 61 1022.3
20260902190533 72 218 5.0 7.0 0.00 0.00 0.00 61 1022.2
20260902190133 72 50 2.0 4.0 0.00 0.00 0.00 62 1022.2
20260902185733 72 227 4.0 4.0 0.00 0.00 0.00 61 1022.3
20260902185333 71 353 3.0 4.0 0.00 0.00 0.00 62 1022.3
20260902184932 71 335 2.0 2.0 0.00 0.00 0.00 63 1022.3
20260902184533 71 270 2.0 3.0 0.00 0.00 0.00 62 1022.3
20260902184132 71 0 0.0 4.0 0.00 0.00 0.00 63 1022.2
20260902183732 70 243 3.0 6.0 0.00 0.00 0.00 63 1022.3
20260902182932 70 200 4.0 7.0 0.00 0.00 0.00 65 1022.4
20260902182532 70 90 1.0 7.0 0.00 0.00 0.00 66 1022.4
20260902182131 69 45 6.0 7.0 0.00 0.00 0.00 66 1022.4
20260902181331 69 33 0.0 4.0 0.00 0.00 0.00 68 1022.4
20260902180931 69 67 3.0 4.0 0.00 0.00 0.00 68 1022.4
20260902180531 68 47 2.0 4.0 0.00 0.00 0.00 69 1022.5
20260902180132 68 112 3.0 4.0 0.00 0.00 0.00 68 1022.5
20260902175731 68 36 2.0 4.0 0.00 0.00 0.00 69 1022.4
20260902175330 68 114 4.0 4.0 0.00 0.00 0.00 68 1022.5
20260902174930 67 101 2.0 4.0 0.00 0.00 0.00 69 1022.5
20260902174530 67 112 2.0 3.0 0.00 0.00 0.00 69 1022.5
20260902174130 67 87 2.0 3.0 0.00 0.00 0.00 69 1022.5
20260902173730 67 225 1.0 3.0 0.00 0.00 0.00 69 1022.5
20260902173330 66 63 2.0 5.0 0.00 0.00 0.00 69 1022.3
20260902172930 66 0 0.0 3.0 0.00 0.00 0.00 69 1022.3
20260902172529 66 0 1.0 2.0 0.00 0.00 0.00 69 1022.4
20260902172129 66 135 1.0 2.0 0.00 0.00 0.00 70 1022.4
20260902171729 66 0 0.0 2.0 0.00 0.00 0.00 70 1022.4
20260902171329 66 90 1.0 3.0 0.00 0.00 0.00 70 1022.5
20260902170929 65 283 0.0 3.0 0.00 0.00 0.00 70 1022.4
20260902170529 65 0 1.0 1.0 0.00 0.00 0.00 70 1022.5
20260902170129 65 225 0.0 2.0 0.00 0.00 0.00 70 1022.4
20260902165728 65 65 1.0 2.0 0.00 0.00 0.00 71 1022.5
20260902165329 65 315 0.0 3.0 0.00 0.00 0.00 70 1022.5
20260902164928 65 135 0.0 3.0 0.00 0.00 0.00 70 1022.4
20260902164528 64 0 0.0 1.0 0.00 0.00 0.00 70 1022.4
20260902164128 64 270 0.0 3.0 0.00 0.00 0.00 71 1022.4
20260902163728 64 180 0.0 3.0 0.00 0.00 0.00 70 1022.4
20260902163328 64 54 3.0 3.0 0.00 0.00 0.00 70 1022.4
20260902162927 64 78 0.0 3.0 0.00 0.00 0.00 71 1022.5
20260902162127 64 90 0.0 3.0 0.00 0.00 0.00 70 1022.5
20260902161727 63 45 1.0 1.0 0.00 0.00 0.00 70 1022.6
20260902161328 63 45 0.0 2.0 0.00 0.00 0.00 71 1022.6
20260902160927 63 90 0.0 3.0 0.00 0.00 0.00 70 1022.5
20260902160527 63 90 0.0 2.0 0.00 0.00 0.00 70 1022.5
20260902160126 63 90 0.0 2.0 0.00 0.00 0.00 70 1022.5
20260902155726 63 90 0.0 2.0 0.00 0.00 0.00 69 1022.6
20260902154926 63 90 0.0 1.0 0.00 0.00 0.00 70 1022.5
20260902154526 63 90 0.0 2.0 0.00 0.00 0.00 70 1022.5
20260902154126 62 90 2.0 2.0 0.00 0.00 0.00 69 1022.4
20260902153726 62 90 1.0 2.0 0.00 0.00 0.00 70 1022.4
20260902153326 62 58 0.0 1.0 0.00 0.00 0.00 70 1022.3
20260902152925 62 45 1.0 2.0 0.00 0.00 0.00 70 1022.2
20260902152525 62 0 0.0 1.0 0.00 0.00 0.00 69 1022.1
20260902152125 62 130 0.0 3.0 0.00 0.00 0.00 69 1022.1
20260902151725 62 90 0.0 3.0 0.00 0.00 0.00 69 1022.1
20260902151325 62 29 2.0 4.0 0.00 0.00 0.00 69 1022.0
20260902150525 61 45 1.0 7.0 0.00 0.00 0.00 70 1022.1
20260902150124 61 47 3.0 4.0 0.00 0.00 0.00 69 1022.1
20260902145726 61 0 1.0 1.0 0.00 0.00 0.00 69 1022.1
20260902144924 61 31 2.0 3.0 0.00 0.00 0.00 68 1022.1
20260902144524 61 45 1.0 3.0 0.00 0.00 0.00 69 1022.0
20260902144423 61 45 0.0 4.0 0.00 0.00 0.00 69 1022.0
20260902144124 61 45 2.0 2.0 0.00 0.00 0.00 69 1021.9
20260902143724 61 45 0.0 4.0 0.00 0.00 0.00 69 1022.0
20260902143323 61 63 2.0 3.0 0.00 0.00 0.00 69 1022.1
20260902143113 61 45 1.0 4.0 0.00 0.00 0.00 69 1022.1
20260902142923 61 45 1.0 4.0 0.00 0.00 0.00 69 1022.1
20260902142808 61 27 2.0 2.0 0.00 0.00 0.00 68 1022.0
20260902142523 61 27 2.0 2.0 0.00 0.00 0.00 68 1022.0
20260902142123 61 40 1.0 2.0 0.00 0.00 0.00 68 1022.0
20260902141723 61 38 1.0 3.0 0.00 0.00 0.00 68 1021.9
20260902141342 60 45 1.0 1.0 0.00 0.00 0.00 69 1021.8
20260902141323 61 45 2.0 2.0 0.00 0.00 0.00 69 1021.9
20260902140922 61 45 0.0 2.0 0.00 0.00 0.00 69 1021.9
20260902140522 60 45 1.0 1.0 0.00 0.00 0.00 69 1021.8
20260902140122 60 45 1.0 1.0 0.00 0.00 0.00 69 1021.8
20260902135323 60 49 1.0 1.0 0.00 0.00 0.00 68 1021.6
20260902135321 60 45 0.0 1.0 0.00 0.00 0.00 69 1021.6
20260902134922 60 45 0.0 1.0 0.00 0.00 0.00 69 1021.6
20260902134522 60 45 1.0 1.0 0.00 0.00 0.00 68 1021.4
20260902134122 60 45 0.0 0.0 0.00 0.00 0.00 68 1021.5
20260902133721 60 45 0.0 1.0 0.00 0.00 0.00 69 1021.4
20260902133321 60 27 0.0 0.0 0.00 0.00 0.00 68 1021.3
20260902132921 60 0 0.0 0.0 0.00 0.00 0.00 68 1021.4
20260902132521 60 135 0.0 0.0 0.00 0.00 0.00 68 1021.4
20260902132121 60 135 0.0 0.0 0.00 0.00 0.00 68 1021.4
20260902131721 60 135 0.0 0.0 0.00 0.00 0.00 68 1021.3
20260902131321 60 135 0.0 0.0 0.00 0.00 0.00 68 1021.3
20260902130920 60 135 0.0 0.0 0.00 0.00 0.00 68 1021.3
20260902130520 60 135 0.0 0.0 0.00 0.00 0.00 68 1021.3
20260902130120 60 135 0.0 0.0 0.00 0.00 0.00 68 1021.2
20260902125720 61 45 0.0 0.0 0.00 0.00 0.00 68 1021.1
20260902125320 61 45 0.0 0.0 0.00 0.00 0.00 67 1021.1
20260902124920 61 45 0.0 0.0 0.00 0.00 0.00 67 1021.1
20260902124520 61 45 0.0 0.0 0.00 0.00 0.00 67 1021.2
20260902124119 61 45 0.0 1.0 0.00 0.00 0.00 68 1021.1
20260902123719 61 90 0.0 0.0 0.00 0.00 0.00 67 1021.2
20260902123319 61 90 0.0 0.0 0.00 0.00 0.00 67 1021.2
20260902122920 61 90 0.0 0.0 0.00 0.00 0.00 67 1021.2
20260902122520 61 135 0.0 0.0 0.00 0.00 0.00 67 1021.1
20260902122120 61 135 0.0 0.0 0.00 0.00 0.00 67 1021.0
20260902121719 61 135 0.0 0.0 0.00 0.00 0.00 67 1021.0
20260902121318 61 135 0.0 0.0 0.00 0.00 0.00 67 1021.0
20260902120918 61 135 0.0 0.0 0.00 0.00 0.00 67 1021.0
20260902120518 61 135 0.0 0.0 0.00 0.00 0.00 67 1021.0
20260902120119 61 135 0.0 0.0 0.00 0.00 0.00 67 1020.9
20260902115718 61 135 0.0 0.0 0.00 0.00 0.00 67 1020.9
20260902115318 61 90 0.0 0.0 0.00 0.00 0.00 67 1021.0
20260902114918 61 90 0.0 0.0 0.00 0.00 0.00 67 1021.0
20260902114517 61 90 0.0 0.0 0.00 0.00 0.00 67 1021.0
20260902114117 61 90 0.0 0.0 0.00 0.00 0.00 67 1021.2
20260902113717 61 90 0.0 0.0 0.00 0.00 0.00 67 1021.2
20260902113317 61 90 0.0 0.0 0.00 0.00 0.00 66 1021.3
20260902112917 61 90 0.0 0.0 0.00 0.00 0.00 66 1021.3
20260902112117 61 45 0.0 0.0 0.00 0.00 0.00 66 1021.3
20260902111716 61 45 0.0 0.0 0.00 0.00 0.00 66 1021.4
20260902111316 62 45 0.0 0.0 0.00 0.00 0.00 66 1021.4
20260902110916 62 45 0.0 0.0 0.00 0.00 0.00 66 1021.4
20260902110517 62 45 0.0 0.0 0.00 0.00 0.00 66 1021.3
20260902110116 62 45 0.0 0.0 0.00 0.00 0.00 66 1021.4
20260902105716 62 45 0.0 0.0 0.00 0.00 0.00 66 1021.4